San Benito, TX

5:58 AM CDT on September 26, 2016 (GMT -0500)
Valley International

Weather History for KHRL - January, 2012

Change the Weather History Date:

Sunday, January 1, 2012

  Actual Average Record
Temperature  
Mean Temperature 62 °F 59 °F  
Max Temperature 72 °F 70 °F 89 °F (1986)
Min Temperature 52 °F 49 °F 28 °F (1894)
Degree Days  
Heating Degree Days 3 7  
Month to date heating degree days 3 7  
Since 1 July heating degree days 202 255  
Cooling Degree Days 0 2  
Month to date cooling degree days 0 2  
Year to date cooling degree days 0 2  
Growing Degree Days 12 (Base 50)    
Moisture  
Dew Point 61 °F    
Average Humidity 67    
Maximum Humidity 100    
Minimum Humidity 33    
Precipitation  
Precipitation 0.26 in 0.02 in 0.72 in (1958)
Month to date precipitation 0.26 0.02  
Year to date precipitation 0.26 0.02  
Sea Level Pressure  
Sea Level Pressure 30.23 in    
Wind  
Wind Speed 9 mph (NE)    
Max Wind Speed 28 mph    
Max Gust Speed 33 mph    
Visibility 4 miles    
Events Fog    
T = Trace of Precipitation, MM = Missing Value Source: NWS Daily Summary

Daily Weather History Graph

Daily Weather History Graph

Search for Another Location

Airport or City:

Trip Planner

Search our weather history database for the weather conditions in past years. The results will help you decide how hot, cold, wet, or windy it might be!

Date:

Astronomy

Jan. 01, 2012 Rise Set
Actual Time 7:18 AM CST 5:50 PM CST
Civil Twilight 6:52 AM CST 6:15 PM CST
Nautical Twilight 6:24 AM CST 6:43 PM CST
Astronomical Twilight 5:55 AM CST 7:12 PM CST
Moon 12:19 PM CST (1/1) 12:36 AM CST (1/1)
Length of Visible Light 11h 22m
Length of Day
10h 31m
First Quarter, 55% of the Moon is Illuminated
Jan 1
First Quarter
Jan 9
Full
Jan 16
Last Quarter
Jan 23
New
Jan 30
First Quarter

Hourly Weather History & Observations

Time (CST) Temp. Dew Point Humidity Pressure Visibility Wind Dir Wind Speed Gust Speed Precip Events Conditions
12:13 AM 71.6 °F 69.8 °F 94% 30.09 in 5.0 mi SSE 6.9 mph - N/A   Overcast
12:41 AM 71.6 °F 69.8 °F 94% 30.09 in 4.0 mi South 10.4 mph - N/A   Overcast
12:52 AM 72.0 °F 70.0 °F 93% 30.09 in 4.0 mi SSE 8.1 mph - N/A   Overcast
1:18 AM 71.6 °F 69.8 °F 94% 30.09 in 6.0 mi SSE 4.6 mph - N/A   Partly Cloudy
1:48 AM 69.8 °F 69.8 °F 100% 30.10 in 7.0 mi SE 3.5 mph - N/A   Mostly Cloudy
1:52 AM 70.0 °F 69.1 °F 97% 30.10 in 7.0 mi SE 3.5 mph - N/A   Mostly Cloudy
2:15 AM 69.8 °F 69.8 °F 100% 30.10 in 6.0 mi East 3.5 mph - N/A   Overcast
2:45 AM 68.0 °F 68.0 °F 100% 30.10 in 2.0 mi Calm Calm - N/A   Mostly Cloudy
2:47 AM 68.0 °F 68.0 °F 100% 30.11 in 1.8 mi Calm Calm - N/A   Scattered Clouds
2:52 AM 68.0 °F 66.9 °F 96% 30.11 in 1.0 mi Calm Calm - N/A   Mist
2:59 AM 68.0 °F 66.2 °F 94% 30.11 in 0.5 mi Calm Calm - N/A Fog Fog
3:07 AM 68.0 °F 66.2 °F 94% 30.11 in 0.2 mi Calm Calm - N/A Fog Fog
3:47 AM 66.2 °F 66.2 °F 100% 30.10 in 0.5 mi ESE 5.8 mph - N/A Fog Fog
3:52 AM 68.0 °F 66.9 °F 96% 30.10 in 0.8 mi ESE 8.1 mph - N/A   Mist
3:57 AM 68.0 °F 66.2 °F 94% 30.09 in 1.2 mi ESE 9.2 mph - N/A   Partly Cloudy
4:01 AM 68.0 °F 66.2 °F 94% 30.09 in 1.0 mi ESE 9.2 mph - N/A   Mist
4:04 AM 68.0 °F 66.2 °F 94% 30.09 in 0.8 mi ESE 8.1 mph - N/A   Mist
4:26 AM 69.8 °F 68.0 °F 94% 30.10 in 1.5 mi ESE 3.5 mph - N/A   Mostly Cloudy
4:38 AM 68.0 °F 68.0 °F 100% 30.11 in 1.2 mi Calm Calm - N/A   Scattered Clouds
4:41 AM 68.0 °F 68.0 °F 100% 30.12 in 0.8 mi Calm Calm - N/A   Mist
4:48 AM 68.0 °F 68.0 °F 100% 30.12 in 0.5 mi Calm Calm - N/A Fog Fog
4:49 AM 68.0 °F 68.0 °F 100% 30.12 in 0.2 mi Calm Calm - N/A Fog Fog
4:52 AM 68.0 °F 68.0 °F 100% 30.12 in 0.2 mi Calm Calm - N/A Fog Fog
5:01 AM 66.2 °F 66.2 °F 100% 30.13 in 0.2 mi Calm Calm - N/A Fog Fog
5:14 AM 68.0 °F 66.2 °F 94% 30.13 in 0.5 mi NNW 4.6 mph - N/A Fog Fog
5:23 AM 69.8 °F 68.0 °F 94% 30.13 in 1.0 mi Calm Calm - N/A   Overcast
5:47 AM 68.0 °F 66.2 °F 94% 30.15 in 0.8 mi Calm Calm - N/A   Mostly Cloudy
5:52 AM 68.0 °F 66.9 °F 96% 30.15 in 0.8 mi Calm Calm - N/A   Mostly Cloudy
6:08 AM 68.0 °F 66.2 °F 94% 30.16 in 0.2 mi Calm Calm - N/A Fog Fog
6:27 AM 66.2 °F 64.4 °F 94% 30.18 in 0.2 mi Calm Calm - N/A Fog Fog
6:42 AM 66.2 °F 66.2 °F 100% 30.18 in 0.2 mi SE 4.6 mph - N/A Fog Fog
6:52 AM 68.0 °F 66.9 °F 96% 30.19 in 0.2 mi ESE 3.5 mph - N/A Fog Fog
7:13 AM 68.0 °F 68.0 °F 100% 30.22 in 0.2 mi North 5.8 mph - N/A Fog Fog
7:52 AM 69.1 °F 69.1 °F 100% 30.25 in 0.2 mi North 5.8 mph - N/A Fog Fog
8:38 AM 69.8 °F 69.8 °F 100% 30.28 in 0.8 mi North 5.8 mph - 0.02 in   Mist
8:52 AM 72.0 °F 71.1 °F 97% 30.29 in 3.0 mi North 6.9 mph - 0.04 in   Overcast
9:02 AM 71.6 °F 71.6 °F 100% 30.29 in 6.0 mi North 8.1 mph - N/A   Overcast
9:27 AM 71.6 °F 69.8 °F 94% 30.31 in 7.0 mi North 6.9 mph - N/A   Overcast
9:52 AM 71.1 °F 70.0 °F 96% 30.32 in 3.0 mi NNE 10.4 mph - 0.02 in   Overcast
9:56 AM 71.6 °F 69.8 °F 94% 30.32 in 1.8 mi NE 11.5 mph - N/A   Overcast
10:01 AM 66.2 °F 66.2 °F 100% 30.34 in 1.5 mi NNE 25.3 mph 33.4 mph N/A   Overcast
10:17 AM 60.8 °F 55.4 °F 82% 30.34 in 1.5 mi NNE 24.2 mph 29.9 mph 0.17 in   Overcast
10:27 AM 60.8 °F 55.4 °F 82% 30.34 in 1.5 mi NNE 20.7 mph 26.5 mph N/A   Overcast
10:52 AM 61.0 °F 53.1 °F 75% 30.35 in 1.5 mi NNE 17.3 mph 28.8 mph 0.20 in   Haze
10:59 AM 62.6 °F 53.6 °F 72% 30.35 in 10.0 mi NNE 19.6 mph - N/A   Overcast
11:34 AM 62.6 °F 51.8 °F 68% 30.35 in 10.0 mi North 19.6 mph 25.3 mph N/A   Overcast
11:52 AM 61.0 °F 48.0 °F 62% 30.35 in 10.0 mi NNE 19.6 mph 25.3 mph N/A   Overcast
12:52 PM 64.0 °F 46.0 °F 52% 30.33 in 10.0 mi NNE 19.6 mph 26.5 mph N/A   Mostly Cloudy
1:52 PM 64.0 °F 43.0 °F 46% 30.35 in 10.0 mi North 15.0 mph - N/A   Overcast
2:52 PM 68.0 °F 39.9 °F 36% 30.35 in 10.0 mi North 18.4 mph - N/A   Mostly Cloudy
3:52 PM 69.1 °F 39.0 °F 33% 30.36 in 10.0 mi North 17.3 mph 21.9 mph N/A   Overcast
4:52 PM 66.0 °F 46.0 °F 48% 30.38 in 10.0 mi NE 10.4 mph - N/A   Overcast
5:52 PM 63.0 °F 46.0 °F 54% 30.41 in 10.0 mi NE 10.4 mph - N/A   Overcast
6:52 PM 62.1 °F 46.9 °F 58% 30.44 in 10.0 mi NE 9.2 mph - N/A   Overcast
7:52 PM 61.0 °F 46.9 °F 60% 30.47 in 10.0 mi NNE 8.1 mph - N/A   Overcast
8:52 PM 57.2 °F 48.2 °F 72% 30.48 in 10.0 mi North 6.9 mph - N/A   Scattered Clouds
9:52 PM 55.0 °F 44.1 °F 67% 30.50 in 10.0 mi NNW 8.1 mph - N/A   Clear
10:52 PM 53.1 °F 39.9 °F 61% 30.50 in 10.0 mi NNW 9.2 mph - N/A   Clear
11:52 PM 52.0 °F 37.9 °F 59% 30.50 in 10.0 mi NNW 11.5 mph - N/A   Clear